Wind_Gust
9 8 8 9 9 9 9 9 8 9 10 10 12 12 13 14 14 14 13 13 13 14 14 14 14 15 14 13 13 13 14 13 13 13 14 15 14 15 17 16 16 16
9 8 8 9 10 10 8 7 8 10 11 10 11 12 10 12 12 13 15 15 14 15 15 15 15 15 15 16 16 15 13 12 14 12 14 14 14 13 16 17 17 16
11 12 13 12 12 10 10 9 8 9 10 11 12 12 11 12 13 13 15 15 15 15 16 16 15 16 16 16 17 15 14 13 14 12 12 12 13 14 15 16 15 16
13 13 11 11 10 10 9 10 10 11 11 12 13 14 14 13 14 16 16 17 16 16 16 16 17 16 17 17 17 16 14 12 12 12 12 12 12 13 14 13 14 15
12 11 10 10 10 10 10 11 12 12 12 13 13 14 15 16 16 16 16 16 16 16 17 18 17 17 17 18 18 17 15 14 12 12 11 10 10 11 13 13 12 13
12 11 11 12 11 11 11 12 12 12 13 13 14 15 15 15 14 15 16 16 16 17 17 17 17 17 18 18 18 16 17 16 14 13 13 12 12 11 12 12 12 13
13 12 12 11 11 11 11 12 12 12 12 12 14 16 16 16 17 17 17 17 17 18 17 18 18 18 18 18 18 17 17 15 13 13 13 13 11 11 12 13 13 13
11 10 10 10 10 11 12 13 13 13 13 13 14 14 15 16 17 16 17 18 16 18 17 17 17 16 16 17 17 17 17 16 15 15 16 16 15 17 17 16 13 13
10 10 10 9 11 12 14 13 13 13 14 15 16 15 15 15 16 17 17 17 17 18 18 17 17 17 15 15 16 16 17 16 16 17 18 19 20 20 20 19 20 19
13 11 12 12 13 12 14 13 13 14 14 15 15 15 16 14 16 16 16 17 17 19 19 19 20 18 18 20 16 17 18 18 18 18 18 19 20 20 20 20 20 20
13 13 13 13 13 13 15 15 15 15 15 16 17 17 15 15 17 15 17 17 19 18 19 20 19 18 20 22 20 20 20 19 20 21 21 21 20 20 19 21 20 20
12 13 13 14 14 14 15 16 15 15 15 15 16 16 16 15 16 16 17 17 19 18 18 19 19 18 20 20 21 22 22 22 21 21 21 21 21 20 21 21 20 20
14 14 14 13 14 15 15 16 16 15 16 16 15 15 17 18 16 17 17 17 18 18 20 20 20 19 22 21 21 22 21 21 22 21 21 19 20 21 21 20 20 20
14 14 13 15 14 15 16 16 15 16 16 15 15 17 18 18 17 17 16 16 18 17 19 18 20 20 23 22 20 21 20 22 21 21 20 20 19 21 22 21 22 22
12 13 13 14 15 15 16 15 15 14 13 15 15 15 17 17 16 17 18 19 18 18 18 19 26 21 19 24 19 21 21 21 21 23 23 22 21 20 20 21 21 22
14 14 15 14 15 15 14 12 12 12 14 15 17 16 15 17 17 18 20 20 19 21 20 22 24 19 25 29 25 21 20 20 21 22 22 21 23 25 25 24 19 21
15 15 14 16 13 12 12 13 13 13 13 14 14 15 17 16 16 19 20 18 19 21 21 22 23 23 24 22 24 23 19 21 20 21 21 24 25 25 28 28 25 21
14 13 14 12 12 13 13 12 12 14 15 15 15 17 16 15 19 18 19 20 20 20 21 21 20 22 22 22 22 23 19 20 19 21 23 23 24 26 24 22 22 26
12 12 12 13 13 12 12 13 14 16 16 16 17 14 13 19 18 18 19 18 19 21 21 22 19 24 23 22 21 21 20 18 20 20 22 22 24 23 23 24 24 25
13 13 14 13 11 12 12 14 16 17 14 13 14 14 17 17 17 19 18 19 19 18 19 20 22 20 23 22 21 20 18 16 18 19 20 22 23 23 23 24 23 24
13 12 13 12 12 12 14 15 15 14 15 14 14 15 17 17 17 18 17 17 17 16 18 20 24 25 24 24 22 20 17 14 18 18 20 20 22 23 24 24 23 23
12 12 12 12 12 13 15 15 15 15 14 11 13 15 14 14 16 17 18 17 16 17 19 22 23 26 25 25 23 19 16 17 18 19 20 21 23 22 24 24 24 25
10 11 12 12 12 15 16 14 14 13 12 9 15 15 16 18 16 16 15 17 19 19 20 20 21 25 25 25 24 21 15 18 18 19 20 22 22 20 21 25 27 26
9 10 13 12 14 15 14 13 11 11 12 10 14 14 17 14 11 15 16 16 18 19 18 17 19 24 26 25 24 24 17 18 17 19 19 19 19 19 19 21 25 31
10 11 12 14 15 13 12 12 12 12 9 10 12 13 13 10 13 15 16 16 15 15 19 19 17 19 24 23 25 23 20 16 17 17 20 19 17 18 17 18 20 20
10 12 12 13 14 12 12 12 9 11 11 12 11 11 13 12 13 15 16 15 14 15 17 16 17 17 22 23 23 23 20 18 16 19 19 17 17 18 19 18 18 19
Wind_Speed
6 5 5 5 5 5 5 5 4 5 6 5 6 6 6 7 7 7 8 7 7 7 8 8 9 9 8 8 8 7 6 7 7 6 6 7 7 8 8 8 8 8
6 5 5 5 6 5 5 4 5 5 6 6 6 7 5 6 7 7 8 9 8 9 9 9 9 9 9 9 10 9 7 7 8 6 7 7 6 7 8 8 9 8
7 8 8 7 6 7 6 6 5 5 6 6 6 6 6 7 7 8 8 7 8 8 9 8 9 9 9 9 10 9 8 8 8 7 6 7 6 6 7 8 8 9
8 8 6 6 6 6 5 5 6 6 6 6 7 7 7 6 7 8 7 8 8 8 9 9 9 9 9 9 10 9 8 7 7 7 6 5 5 5 7 7 8 8
7 7 6 5 6 6 5 6 7 6 6 6 7 8 7 8 7 7 8 8 8 8 9 9 9 8 8 8 9 9 9 8 7 7 6 5 6 6 6 6 8 8
6 6 6 6 7 6 5 6 6 6 7 7 8 6 8 7 7 8 9 9 8 8 9 9 10 9 9 9 8 8 8 8 8 8 8 7 7 6 6 7 7 8
7 7 7 5 5 5 5 7 6 6 6 6 6 8 7 7 8 9 9 9 8 9 9 9 9 10 8 8 7 8 8 8 8 8 8 7 6 7 7 8 8 7
6 5 5 5 6 6 7 6 7 7 7 7 7 7 7 8 9 8 8 9 8 10 10 9 9 9 9 7 8 9 10 8 9 9 10 10 9 11 10 9 8 9
6 6 5 6 6 6 7 7 6 7 8 8 8 7 7 7 8 8 9 10 10 10 11 9 10 9 8 8 9 9 9 10 10 10 11 11 12 12 12 11 12 11
6 5 6 5 6 6 8 8 7 7 8 8 8 7 7 7 8 9 9 10 10 11 11 10 10 10 11 11 10 10 10 11 11 11 11 11 11 11 12 11 11 11
6 5 6 6 6 6 8 8 9 8 8 8 8 8 8 7 8 8 10 10 9 10 11 11 11 10 11 11 11 12 11 11 12 12 12 12 11 11 12 10 10 11
6 6 6 7 7 8 9 9 8 8 7 8 9 7 7 7 8 8 9 10 10 10 10 11 10 10 10 11 12 12 12 12 11 11 12 12 12 12 11 10 9 11
6 6 6 7 8 8 8 8 8 7 8 9 8 6 7 8 9 9 9 9 10 10 11 11 12 11 10 10 11 11 11 12 13 12 11 10 11 12 12 11 11 11
6 6 7 8 8 8 7 7 8 8 7 7 7 7 8 9 9 10 9 9 10 9 10 9 10 11 12 11 10 11 11 13 12 12 11 11 11 12 12 12 13 13
6 7 7 8 8 7 8 8 8 7 7 7 7 8 8 9 9 10 10 11 11 10 10 10 10 10 10 11 10 11 9 9 8 9 9 9 9 10 10 11 12 11
7 7 7 7 7 8 8 7 7 7 8 9 10 9 8 9 10 10 11 11 10 12 11 11 10 8 15 19 17 10 10 9 10 9 10 10 10 9 11 12 11 10
7 7 7 9 8 7 7 8 8 7 8 9 9 9 10 9 9 11 10 9 11 11 12 10 10 10 19 17 18 19 11 11 10 11 12 12 12 12 12 14 12 11
7 7 8 7 7 8 8 7 7 8 9 9 9 10 9 9 11 11 11 11 10 12 12 11 10 15 18 18 18 19 16 10 10 10 11 12 12 12 11 11 12 12
7 8 8 8 8 8 7 7 8 10 10 10 10 8 8 11 11 11 11 10 11 12 12 12 10 17 17 18 17 17 16 12 9 10 11 12 12 12 12 12 11 11
7 8 8 8 7 7 8 8 10 10 9 8 8 8 10 10 10 11 10 11 10 10 11 11 11 14 18 17 16 16 15 12 9 10 10 11 12 12 11 12 12 11
8 8 8 7 7 8 8 10 9 8 9 8 8 9 9 9 9 10 10 10 10 9 9 11 11 19 18 18 16 15 14 11 9 9 9 10 11 12 12 12 12 10
7 7 7 7 8 8 9 10 9 9 9 6 7 8 7 8 8 9 10 10 10 10 11 12 11 19 18 18 17 14 13 8 8 9 9 9 10 11 12 11 11 12
6 7 7 8 7 9 10 9 9 8 7 5 8 8 9 9 9 8 7 9 10 10 11 10 11 16 18 18 17 16 11 8 8 8 9 9 10 9 9 10 12 13
6 7 8 8 9 10 9 8 7 6 7 5 8 8 9 8 6 8 9 9 10 11 10 10 10 15 19 18 17 16 11 8 7 7 9 10 9 9 8 8 13 22
6 7 8 8 9 8 7 8 7 7 5 6 7 7 7 6 6 8 9 9 9 9 13 12 10 12 17 17 18 16 11 8 8 7 10 9 8 9 8 8 9 11
6 7 7 8 9 8 7 7 5 6 7 7 7 6 7 7 7 8 10 8 7 9 9 9 10 10 13 17 16 16 14 9 7 8 8 9 9 8 8 8 8 8
Wind_Direction
46 45 48 48 51 51 45 41 37 32 6 350 346 333 355 340 341 342 340 335 333 327 328 330 329 329 327 325 319 309 303 295 291 282 280 261 260 265 266 261 253 248
39 48 50 51 46 37 28 31 32 25 8 356 351 343 346 352 353 347 344 339 341 343 341 340 337 333 332 338 338 333 326 326 324 320 315 306 295 291 290 279 270 260
42 42 36 34 34 32 22 24 22 25 20 359 354 359 359 1 354 347 346 342 342 343 344 341 340 339 339 341 339 336 336 336 337 328 323 317 307 306 303 296 293 275
44 42 35 33 32 32 24 31 27 20 24 3 7 3 1 356 351 346 346 348 345 347 345 345 345 343 345 342 339 337 337 335 334 327 325 320 316 316 317 310 304 304
43 37 31 29 33 30 27 34 28 20 18 8 11 8 0 359 350 354 355 351 353 350 353 352 348 346 345 347 340 342 342 336 339 338 335 324 324 322 322 318 324 320
50 48 33 32 27 23 32 35 24 20 13 18 14 7 8 356 3 4 360 355 355 357 357 354 352 347 351 346 343 346 341 339 343 349 345 340 337 338 340 335 338 339
41 36 27 28 32 23 40 33 23 19 19 18 12 20 1 4 11 6 0 354 357 358 356 355 349 349 344 342 342 340 340 341 343 352 357 354 343 346 348 349 346 345
53 35 30 31 39 29 37 30 27 22 17 12 16 8 6 12 14 10 358 358 358 360 2 359 357 348 347 344 355 346 359 3 7 7 11 8 4 4 359 351 347 348
52 42 36 37 40 36 36 30 25 23 25 22 16 5 4 6 6 8 7 8 9 7 7 4 0 353 340 350 357 1 7 15 17 20 21 20 18 13 9 2 6 359
54 44 36 36 46 38 39 34 27 28 31 26 18 10 6 6 9 9 13 10 13 10 13 6 4 358 1 5 2 10 14 14 15 20 22 21 19 15 12 11 10 6
54 44 44 43 48 45 40 37 35 33 33 30 19 17 7 9 18 18 20 17 16 13 13 9 7 4 9 3 9 13 15 14 15 16 18 18 16 14 15 12 11 10
59 52 45 42 44 47 47 45 39 35 31 35 31 18 7 12 24 23 26 25 19 17 18 15 11 8 12 12 15 16 18 20 20 19 19 18 15 10 6 7 8 11
67 57 50 50 51 53 54 50 46 39 43 40 27 11 28 27 21 26 25 25 22 21 25 22 21 17 16 16 21 21 26 28 26 23 21 15 12 9 2 4 8 10
65 60 60 60 61 60 56 53 54 49 39 44 32 22 28 22 21 25 22 26 20 23 19 21 22 27 21 13 18 21 26 34 30 30 26 23 18 15 10 7 12 11
70 60 60 64 63 58 54 54 55 52 43 34 27 27 27 25 34 35 32 30 24 22 22 24 25 21 19 15 7 19 23 28 20 25 29 27 22 20 16 15 14 12
71 69 65 62 57 57 54 51 51 50 51 49 47 41 35 36 37 38 39 35 29 29 29 31 27 20 13 14 19 20 27 31 34 26 25 25 25 25 27 26 15 12
72 66 64 63 58 57 53 51 49 48 48 48 45 43 43 37 38 42 37 31 34 33 33 32 29 17 10 15 15 16 23 34 26 27 24 26 25 23 24 22 19 18
73 71 69 63 61 57 53 51 50 50 50 46 46 43 41 43 44 43 42 39 39 40 39 32 27 11 16 18 21 22 25 30 29 29 28 26 23 21 17 13 13 17
78 75 72 65 59 59 57 56 55 53 49 45 44 42 44 47 44 43 42 39 41 42 39 32 29 13 18 20 23 26 26 35 36 33 35 31 29 26 24 21 16 15
78 76 71 67 64 61 61 60 57 55 52 49 52 46 47 49 43 46 42 39 38 41 42 35 30 10 20 20 22 25 27 36 40 39 38 35 33 29 26 24 20 22
75 74 75 71 66 66 66 62 60 60 55 47 50 48 48 46 41 44 42 40 37 37 46 40 27 18 22 22 21 24 26 38 39 42 40 38 35 32 30 27 21 17
77 79 77 73 72 70 68 64 59 55 55 45 56 56 53 53 47 47 42 42 38 38 44 40 29 22 23 23 22 20 30 37 36 39 41 37 34 30 32 29 26 22
77 85 83 78 76 74 67 61 60 53 51 41 64 58 56 49 49 45 38 42 39 37 39 38 32 21 23 24 23 20 32 35 35 35 35 36 34 25 25 26 28 25
78 84 86 81 76 74 73 68 64 61 57 35 63 63 57 49 48 54 44 39 40 39 35 38 31 22 24 26 26 24 32 33 32 38 39 35 32 27 23 23 25 28
82 81 84 83 79 73 73 73 64 64 56 54 59 65 64 58 52 57 52 43 39 38 35 39 33 24 24 27 30 26 31 32 33 37 43 32 26 28 25 24 20 21
77 83 78 81 83 79 70 68 67 67 57 66 59 61 67 58 58 57 58 47 35 37 37 33 35 30 26 29 33 32 30 40 30 39 35 31 28 27 20 20 21 15